Simultaneous Nadir Overpasses (SNOs) Predictions

Prediction of SNOs between GOES-16 and AQUA Satellite Orbit:

Table of predicted SNOs for the next 14.0 days since TLE Epoch: 5/18/2018
Index Date Time (GOES-16) GOES-16 Lat,Lon AQUA Lat,Lon Distance(km) Time Diff (sec)
1 05/19/2018 18:35:51 -0.00, -75.20 0.11, -74.62 65.69 80
2 05/21/2018 18:23:39 0.00, -75.21 0.76, -71.67 403.17 80
3 05/22/2018 06:44:54 -0.00, -75.22 0.33, -76.82 182.21 80
4 05/24/2018 06:30:01 -0.00, -75.24 -0.27, -73.86 156.44 80
5 05/24/2018 18:51:26 0.00, -75.24 -0.80, -79.06 433.81 80
6 05/26/2018 06:17:49 -0.01, -75.27 -0.93, -70.91 495.74 80
7 05/26/2018 18:39:13 0.01, -75.27 -0.20, -76.09 94.34 80
8 05/28/2018 18:29:41 0.01, -75.30 0.47, -73.14 245.71 80
9 05/29/2018 06:50:56 -0.01, -75.32 0.62, -78.30 338.84 80
10 05/31/2018 06:36:04 -0.02, -75.36 -0.05, -75.35 3.56 80




NCC Satellite Simultaneous Nadir Overpasses (SNOs) Prediction Service
